| time (UTC) | temp F | wind direction | speed knots | gust knots | rain 1hr in | rain 24hr in | rain mn in | humidity % | barometer mb |
| 20260504024529 | 61 | 205 | 1.7 | 3.5 | 0.00 | 0.00 | 0.00 | 38 | 1005.4 |
| 20260504023030 | 62 | 218 | 1.7 | 3.5 | 0.00 | 0.00 | 0.00 | 37 | 1005.4 |
| 20260504021530 | 64 | 310 | 0.9 | 1.7 | 0.00 | 0.00 | 0.00 | 35 | 1005.3 |
| 20260504020031 | 64 | 311 | 0.9 | 1.7 | 0.00 | 0.00 | 0.00 | 34 | 1005.3 |
| 20260504014541 | 65 | 311 | 0.0 | 1.7 | 0.00 | 0.00 | 0.00 | 35 | 1005.2 |
| 20260504013027 | 65 | 311 | 0.0 | 1.7 | 0.00 | 0.00 | 0.00 | 35 | 1005.3 |
| 20260504011526 | 66 | 312 | 0.9 | 2.6 | 0.00 | 0.00 | 0.00 | 35 | 1005.5 |
| 20260504010024 | 66 | 312 | 2.6 | 3.5 | 0.00 | 0.00 | 0.00 | 34 | 1005.6 |
| 20260504004523 | 67 | 314 | 3.5 | 5.2 | 0.00 | 0.00 | 0.00 | 33 | 1005.6 |
| 20260504003023 | 68 | 314 | 3.5 | 7.8 | 0.00 | 0.00 | 0.00 | 32 | 1005.7 |
| 20260504001525 | 69 | 308 | 5.2 | 7.8 | 0.00 | 0.00 | 0.00 | 31 | 1005.7 |
| 20260504000037 | 69 | 320 | 5.2 | 8.7 | 0.00 | 0.00 | 0.00 | 31 | 1005.7 |
| 20260503234521 | 70 | 303 | 7.0 | 12.2 | 0.00 | 0.00 | 0.00 | 31 | 1006.0 |
| 20260503233024 | 70 | 319 | 6.1 | 8.7 | 0.00 | 0.00 | 0.00 | 32 | 1005.9 |
| 20260503231520 | 70 | 312 | 6.1 | 9.6 | 0.00 | 0.00 | 0.00 | 31 | 1005.9 |
| 20260503230019 | 69 | 296 | 7.0 | 13.9 | 0.00 | 0.00 | 0.00 | 32 | 1005.9 |
| 20260503224518 | 70 | 328 | 6.1 | 11.3 | 0.00 | 0.00 | 0.00 | 32 | 1005.9 |
| 20260503223016 | 70 | 311 | 6.1 | 10.4 | 0.00 | 0.00 | 0.00 | 31 | 1005.9 |
| 20260503221517 | 70 | 307 | 6.1 | 9.6 | 0.00 | 0.00 | 0.00 | 33 | 1005.8 |
| 20260503220020 | 69 | 319 | 9.6 | 14.8 | 0.00 | 0.00 | 0.00 | 34 | 1005.9 |
| 20260503214523 | 70 | 321 | 7.8 | 13.9 | 0.00 | 0.00 | 0.00 | 33 | 1006.0 |
| 20260503213012 | 70 | 331 | 9.6 | 13.0 | 0.00 | 0.00 | 0.00 | 33 | 1006.0 |
| 20260503211513 | 69 | 323 | 9.6 | 15.6 | 0.00 | 0.00 | 0.00 | 35 | 1006.2 |
| 20260503210030 | 70 | 330 | 10.4 | 13.9 | 0.00 | 0.00 | 0.00 | 35 | 1006.4 |
| 20260503204510 | 70 | 320 | 7.8 | 13.0 | 0.00 | 0.00 | 0.00 | 35 | 1006.6 |
| 20260503203013 | 69 | 327 | 9.6 | 14.8 | 0.00 | 0.00 | 0.00 | 35 | 1006.6 |
| 20260503201506 | 69 | 297 | 7.0 | 13.0 | 0.00 | 0.00 | 0.00 | 34 | 1006.7 |
| 20260503200007 | 69 | 338 | 9.6 | 15.6 | 0.00 | 0.00 | 0.00 | 33 | 1007.0 |
| 20260503194504 | 69 | 335 | 11.3 | 18.2 | 0.00 | 0.00 | 0.00 | 32 | 1007.0 |
| 20260503193002 | 68 | 337 | 10.4 | 18.2 | 0.00 | 0.00 | 0.00 | 33 | 1007.1 |
| 20260503191502 | 68 | 321 | 8.7 | 16.5 | 0.00 | 0.00 | 0.00 | 33 | 1007.1 |
| 20260503190104 | 68 | 328 | 12.2 | 21.7 | 0.00 | 0.00 | 0.00 | 34 | 1007.2 |
| 20260503184600 | 68 | 332 | 13.0 | 16.5 | 0.00 | 0.00 | 0.00 | 35 | 1007.1 |
| 20260503183106 | 68 | 342 | 13.9 | 18.2 | 0.00 | 0.00 | 0.00 | 35 | 1007.3 |
| 20260503181558 | 68 | 327 | 7.0 | 18.2 | 0.00 | 0.00 | 0.00 | 37 | 1007.5 |
| 20260503180106 | 67 | 338 | 10.4 | 18.2 | 0.00 | 0.00 | 0.00 | 38 | 1007.6 |
| 20260503174555 | 67 | 343 | 10.4 | 18.2 | 0.00 | 0.00 | 0.00 | 34 | 1007.5 |
| 20260503173142 | 67 | 347 | 12.2 | 18.2 | 0.00 | 0.00 | 0.00 | 36 | 1007.6 |
| 20260503171553 | 66 | 340 | 13.0 | 17.4 | 0.00 | 0.00 | 0.00 | 40 | 1007.6 |
| 20260503090104 | 53 | 116 | 7.0 | 13.9 | 0.00 | 0.00 | 0.00 | 56 | 1007.4 |
| 20260503081558 | 53 | 170 | 7.8 | 15.6 | 0.00 | 0.00 | 0.00 | 62 | 1007.9 |
| 20260503071543 | 56 | 247 | 9.6 | 17.4 | 0.00 | 0.00 | 0.00 | 50 | 1010.2 |
| 20260503054536 | 57 | 224 | 6.1 | 13.0 | 0.00 | 0.00 | 0.00 | 44 | 1011.2 |
| 20260503053027 | 58 | 231 | 3.5 | 11.3 | 0.00 | 0.00 | 0.00 | 43 | 1011.2 |
| 20260503051524 | 58 | 243 | 5.2 | 13.0 | 0.00 | 0.00 | 0.00 | 43 | 1010.9 |
| 20260503050022 | 58 | 142 | 3.5 | 10.4 | 0.00 | 0.00 | 0.00 | 43 | 1010.8 |
| 20260503044534 | 58 | 252 | 3.5 | 9.6 | 0.00 | 0.00 | 0.00 | 43 | 1011.2 |
| 20260503043017 | 58 | 232 | 4.3 | 7.8 | 0.00 | 0.00 | 0.00 | 43 | 1011.5 |
| 20260503041516 | 58 | 244 | 5.2 | 9.6 | 0.00 | 0.00 | 0.00 | 44 | 1011.8 |
| 20260503040015 | 58 | 190 | 0.9 | 7.0 | 0.00 | 0.00 | 0.00 | 45 | 1011.7 |
| 20260503034514 | 59 | 174 | 1.7 | 6.1 | 0.00 | 0.00 | 0.00 | 44 | 1011.7 |
| 20260503033012 | 59 | 226 | 2.6 | 7.8 | 0.00 | 0.00 | 0.00 | 44 | 1011.9 |
| 20260503031512 | 60 | 241 | 3.5 | 6.1 | 0.00 | 0.00 | 0.00 | 43 | 1012.1 |
| 20260503030015 | 60 | 216 | 0.9 | 6.1 | 0.00 | 0.00 | 0.00 | 42 | 1012.2 |